Wainwright, AK

2:36 PM AKDT on March 30, 2017 (GMT -0800)
Wainwright

Weather History for PAWI - October, 2013

Change the Weather History Date:

Wednesday, October 9, 2013

  Actual Average (PABR) Record (PABR)
Temperature  
Mean Temperature 32 °F -  
Max Temperature 33 °F 22 °F 39 °F (1935)
Min Temperature 30 °F 14 °F -14 °F (1996)
Degree Days  
Heating Degree Days 34    
Moisture  
Dew Point 27 °F    
Average Humidity 81    
Maximum Humidity 93    
Minimum Humidity 75    
Precipitation  
Precipitation 0.00 in - - ()
Sea Level Pressure  
Sea Level Pressure 29.28 in    
Wind  
Wind Speed 11 mph (North)    
Max Wind Speed 17 mph    
Max Gust Speed 23 mph    
Visibility 8 miles    
Events Snow    
Averages and records for this station are not official NWS values.
T = Trace of Precipitation, MM = Missing Value Source: NWS Daily Summary

Daily Weather History Graph

Daily Weather History Graph

Search for Another Location

Airport or City:

Trip Planner

Search our weather history database for the weather conditions in past years. The results will help you decide how hot, cold, wet, or windy it might be!

Date:

Astronomy

Oct. 09, 2013 Rise Set
Actual Time 9:32 AM AKDT 7:19 PM AKDT
Civil Twilight 8:28 AM AKDT 8:23 PM AKDT
Nautical Twilight 7:15 AM AKDT 9:35 PM AKDT
Astronomical Twilight 5:55 AM AKDT 10:55 PM AKDT
Moon No Moon Rise No Moon Set
Length of Visible Light 11h 54m
Length of Day
9h 47m
Waxing Crescent, 27% of the Moon is Illuminated
Oct 9
Waxing Crescent
Oct 11
First Quarter
Oct 18
Full
Oct 26
Last Quarter
Nov 3
New

Hourly Weather History & Observations

Time (AKDT) Temp. Windchill Dew Point Humidity Pressure Visibility Wind Dir Wind Speed Gust Speed Precip Events Conditions
12:51 AM 30.2 °F 20.2 °F 26.6 °F 86% 29.14 in 10.0 mi NE 12.7 mph - N/A   Overcast
12:53 AM 30.0 °F 20.0 °F 27.0 °F 88% 29.14 in 10.0 mi NE 12.7 mph - N/A   Overcast
1:01 AM 30.2 °F 18.5 °F 26.6 °F 86% 29.13 in 10.0 mi NE 17.3 mph 23.0 mph N/A   Overcast
1:53 AM 30.9 °F 20.2 °F 27.0 °F 85% 29.14 in 8.0 mi NE 15.0 mph - 0.00 in Snow Light Snow
2:53 AM 30.9 °F 21.7 °F 27.0 °F 85% 29.15 in 9.0 mi NE 11.5 mph - 0.00 in   Overcast
3:53 AM 30.9 °F 22.2 °F 27.0 °F 85% 29.16 in 10.0 mi NE 10.4 mph - N/A   Overcast
4:53 AM 30.9 °F 21.7 °F 26.1 °F 82% 29.16 in 10.0 mi NNE 11.5 mph - 0.00 in   Overcast
5:53 AM 30.9 °F 21.2 °F 26.1 °F 82% 29.17 in 10.0 mi NNE 12.7 mph - N/A   Overcast
6:53 AM 30.9 °F 21.2 °F 26.1 °F 82% 29.19 in 10.0 mi NNE 12.7 mph - N/A   Overcast
7:53 AM 30.9 °F 22.8 °F 26.1 °F 82% 29.20 in 10.0 mi NE 9.2 mph - N/A   Overcast
8:53 AM 30.9 °F 24.3 °F 25.0 °F 79% 29.22 in 10.0 mi NNE 6.9 mph - N/A   Overcast
9:53 AM 30.9 °F 26.2 °F 26.1 °F 82% 29.23 in 10.0 mi NNE 4.6 mph - N/A   Overcast
10:44 AM 30.2 °F 25.4 °F 26.6 °F 86% 29.24 in 1.8 mi North 4.6 mph - 0.00 in Snow Light Snow
10:53 AM 30.9 °F 26.2 °F 27.0 °F 85% 29.25 in 2.5 mi North 4.6 mph - 0.00 in Snow Light Snow
11:00 AM 30.2 °F 24.3 °F 26.6 °F 86% 29.25 in 4.0 mi North 5.8 mph - 0.00 in   Overcast
11:16 AM 30.2 °F 24.3 °F 26.6 °F 86% 29.25 in 1.2 mi NNE 5.8 mph - 0.00 in Snow Light Snow
11:27 AM 30.2 °F 23.4 °F 28.4 °F 93% 29.25 in 2.5 mi NNE 6.9 mph - 0.00 in Snow Light Snow
11:53 AM 32.0 °F 21.6 °F 28.0 °F 85% 29.26 in 10.0 mi NNE 15.0 mph - 0.00 in   Overcast
12:06 PM 32.0 °F 24.2 °F 28.4 °F 87% 29.26 in 0.8 mi North 9.2 mph - 0.00 in Snow Light Snow
12:16 PM 32.0 °F 23.0 °F 28.4 °F 87% 29.27 in 2.5 mi North 11.5 mph - 0.00 in Snow Light Snow
12:23 PM 32.0 °F 24.2 °F 28.4 °F 87% 29.27 in 5.0 mi North 9.2 mph - 0.00 in Snow Light Snow
12:34 PM 33.8 °F 24.8 °F 26.6 °F 75% 29.27 in 9.0 mi North 12.7 mph - 0.00 in   Overcast
12:53 PM 33.1 °F 23.9 °F 27.0 °F 78% 29.28 in 7.0 mi North 12.7 mph - 0.00 in   Overcast
1:05 PM 33.8 °F 24.8 °F 26.6 °F 75% 29.28 in 6.0 mi North 12.7 mph - 0.00 in Snow Light Snow
1:53 PM 33.1 °F 24.4 °F 26.1 °F 75% 29.30 in 10.0 mi NNW 11.5 mph - 0.00 in   Overcast
2:03 PM 33.8 °F 25.3 °F 26.6 °F 75% 29.30 in 10.0 mi North 11.5 mph - N/A   Overcast
2:53 PM 33.1 °F 24.9 °F 26.1 °F 75% 29.32 in 10.0 mi NNW 10.4 mph - N/A   Overcast
3:53 PM 33.1 °F 25.5 °F 26.1 °F 75% 29.34 in 10.0 mi NNW 9.2 mph - N/A   Overcast
4:53 PM 33.1 °F 25.5 °F 26.1 °F 75% 29.34 in 10.0 mi NW 9.2 mph - N/A   Overcast
5:53 PM 33.1 °F 26.9 °F 26.1 °F 75% 29.36 in 10.0 mi NW 6.9 mph - N/A   Overcast
6:50 PM 33.8 °F 26.4 °F 26.6 °F 75% 29.37 in 10.0 mi WNW 9.2 mph - N/A   Overcast
6:53 PM 33.1 °F 25.5 °F 26.1 °F 75% 29.38 in 10.0 mi WNW 9.2 mph - N/A   Overcast
7:05 PM 33.8 °F 27.0 °F 26.6 °F 75% 29.38 in 10.0 mi WNW 8.1 mph - N/A   Overcast
7:53 PM 33.1 °F 26.1 °F 26.1 °F 75% 29.39 in 10.0 mi WNW 8.1 mph - N/A   Overcast
8:53 PM 33.1 °F 25.5 °F 26.1 °F 75% 29.40 in 10.0 mi West 9.2 mph - N/A   Overcast
9:53 PM 32.0 °F 23.6 °F 26.1 °F 79% 29.42 in 10.0 mi WNW 10.4 mph - N/A   Overcast
10:53 PM 32.0 °F 24.8 °F 26.1 °F 79% 29.42 in 10.0 mi WNW 8.1 mph - N/A   Overcast
11:00 PM 33.8 °F 27.0 °F 26.6 °F 75% 29.42 in 10.0 mi WNW 8.1 mph - N/A   Overcast
11:53 PM 32.0 °F 24.8 °F 27.0 °F 82% 29.44 in 10.0 mi WNW 8.1 mph - N/A   Overcast